Time,TemperatureF,DewpointF,PressureIn,WindDirection,WindDirectionDegrees,WindSpeedMPH,WindSpeedGustMPH,Humidity,HourlyPrecipIn,Conditions,Clouds,dailyrainin,SoftwareType,DateUTC
2013-02-08 00:01:00,17.0,15.0,-100.00,East,100,4.0,13.0,91,-99.99,,,-99.99,,2013-02-08 06:01:00,
2013-02-08 00:11:00,17.0,15.0,-100.00,East,100,4.0,13.0,91,-99.99,,,-99.99,,2013-02-08 06:11:00,
2013-02-08 00:32:00,16.0,14.0,-100.00,NE,35,5.0,11.0,91,-99.99,,,-99.99,,2013-02-08 06:32:00,
2013-02-08 00:42:00,16.0,14.0,-100.00,NE,35,5.0,11.0,91,-99.99,,,-99.99,,2013-02-08 06:42:00,
2013-02-08 00:52:00,16.0,14.0,-100.00,NE,35,5.0,11.0,91,-99.99,,,-99.99,,2013-02-08 06:52:00,
2013-02-08 01:01:00,16.0,14.0,-100.00,NE,35,5.0,11.0,91,-99.99,,,-99.99,,2013-02-08 07:01:00,
2013-02-08 01:11:00,16.0,14.0,-100.00,NE,35,5.0,11.0,91,-99.99,,,-99.99,,2013-02-08 07:11:00,
2013-02-08 01:32:00,13.0,11.0,-100.00,North,0,4.0,6.0,90,-99.99,,,-99.99,,2013-02-08 07:32:00,
2013-02-08 01:42:00,13.0,11.0,-100.00,North,0,4.0,6.0,90,-99.99,,,-99.99,,2013-02-08 07:42:00,
2013-02-08 01:52:00,13.0,11.0,-100.00,North,0,4.0,6.0,90,-99.99,,,-99.99,,2013-02-08 07:52:00,
2013-02-08 02:01:00,13.0,11.0,-100.00,North,0,4.0,6.0,90,-99.99,,,-99.99,,2013-02-08 08:01:00,
2013-02-08 02:11:00,13.0,11.0,-100.00,North,0,4.0,6.0,90,-99.99,,,-99.99,,2013-02-08 08:11:00,
2013-02-08 02:32:00,12.0,10.0,-100.00,NNE,20,3.0,6.0,91,-99.99,,,-99.99,,2013-02-08 08:32:00,
2013-02-08 02:42:00,12.0,10.0,-100.00,NNE,20,3.0,6.0,91,-99.99,,,-99.99,,2013-02-08 08:42:00,
2013-02-08 02:52:00,12.0,10.0,-100.00,NNE,20,3.0,6.0,91,-99.99,,,-99.99,,2013-02-08 08:52:00,
2013-02-08 03:03:00,12.0,10.0,-100.00,NNE,20,3.0,6.0,91,-99.99,,,-99.99,,2013-02-08 09:03:00,
2013-02-08 03:11:00,12.0,10.0,-100.00,NNE,20,3.0,6.0,91,-99.99,,,-99.99,,2013-02-08 09:11:00,
2013-02-08 03:32:00,8.0,7.0,-100.00,North,5,2.0,3.0,93,-99.99,,,-99.99,,2013-02-08 09:32:00,
2013-02-08 03:42:00,8.0,7.0,-100.00,North,5,2.0,3.0,93,-99.99,,,-99.99,,2013-02-08 09:42:00,
2013-02-08 03:52:00,8.0,7.0,-100.00,North,5,2.0,3.0,93,-99.99,,,-99.99,,2013-02-08 09:52:00,
2013-02-08 04:01:00,8.0,7.0,-100.00,North,5,2.0,3.0,93,-99.99,,,-99.99,,2013-02-08 10:01:00,
2013-02-08 04:11:00,8.0,7.0,-100.00,North,5,2.0,3.0,93,-99.99,,,-99.99,,2013-02-08 10:11:00,
2013-02-08 04:32:00,7.0,5.0,-100.00,North,10,1.0,3.0,94,-99.99,,,-99.99,,2013-02-08 10:32:00,
2013-02-08 04:42:00,7.0,5.0,-100.00,North,10,1.0,3.0,94,-99.99,,,-99.99,,2013-02-08 10:42:00,
2013-02-08 04:52:00,7.0,5.0,-100.00,North,10,1.0,3.0,94,-99.99,,,-99.99,,2013-02-08 10:52:00,
2013-02-08 05:01:00,7.0,5.0,-100.00,North,10,1.0,3.0,94,-99.99,,,-99.99,,2013-02-08 11:01:00,
2013-02-08 05:11:00,7.0,5.0,-100.00,North,10,1.0,3.0,94,-99.99,,,-99.99,,2013-02-08 11:11:00,
2013-02-08 05:32:00,5.0,3.0,-100.00,NNE,15,2.0,4.0,94,-99.99,,,-99.99,,2013-02-08 11:32:00,
2013-02-08 05:42:00,5.0,3.0,-100.00,NNE,15,2.0,4.0,94,-99.99,,,-99.99,,2013-02-08 11:42:00,
2013-02-08 05:52:00,5.0,3.0,-100.00,NNE,15,2.0,4.0,94,-99.99,,,-99.99,,2013-02-08 11:52:00,
2013-02-08 06:02:00,5.0,3.0,-100.00,NNE,15,2.0,4.0,94,-99.99,,,-99.99,,2013-02-08 12:02:00,
2013-02-08 06:11:00,5.0,3.0,-100.00,NNE,15,2.0,4.0,94,-99.99,,,-99.99,,2013-02-08 12:11:00,
2013-02-08 06:33:00,0.0,-1.0,-100.00,North,10,1.0,3.0,93,-99.99,,,-99.99,,2013-02-08 12:33:00,
2013-02-08 06:42:00,0.0,-1.0,-100.00,North,10,1.0,3.0,93,-99.99,,,-99.99,,2013-02-08 12:42:00,
2013-02-08 06:52:00,0.0,-1.0,-100.00,North,10,1.0,3.0,93,-99.99,,,-99.99,,2013-02-08 12:52:00,
2013-02-08 07:01:00,0.0,-1.0,-100.00,North,10,1.0,3.0,93,-99.99,,,-99.99,,2013-02-08 13:01:00,
2013-02-08 07:11:00,0.0,-1.0,-100.00,North,10,1.0,3.0,93,-99.99,,,-99.99,,2013-02-08 13:11:00,
2013-02-08 07:32:00,-2.0,-3.0,-100.00,NW,325,0.0,1.0,92,-99.99,,,-99.99,,2013-02-08 13:32:00,
2013-02-08 07:43:00,-2.0,-3.0,-100.00,NW,325,0.0,1.0,92,-99.99,,,-99.99,,2013-02-08 13:43:00,
2013-02-08 07:52:00,-2.0,-3.0,-100.00,NW,325,0.0,1.0,92,-99.99,,,-99.99,,2013-02-08 13:52:00,
2013-02-08 08:02:00,-2.0,-3.0,-100.00,NW,325,0.0,1.0,92,-99.99,,,-99.99,,2013-02-08 14:02:00,
2013-02-08 08:11:00,-2.0,-3.0,-100.00,NW,325,0.0,1.0,92,-99.99,,,-99.99,,2013-02-08 14:11:00,
2013-02-08 08:42:00,2.0,0.0,-100.00,NNW,330,1.0,1.0,91,-99.99,,,-99.99,,2013-02-08 14:42:00,
2013-02-08 08:52:00,2.0,0.0,-100.00,NNW,330,1.0,1.0,91,-99.99,,,-99.99,,2013-02-08 14:52:00,
2013-02-08 09:02:00,2.0,0.0,-100.00,NNW,330,1.0,1.0,91,-99.99,,,-99.99,,2013-02-08 15:02:00,
2013-02-08 09:11:00,2.0,0.0,-100.00,NNW,330,1.0,1.0,91,-99.99,,,-99.99,,2013-02-08 15:11:00,
2013-02-08 09:42:00,13.0,12.0,-100.00,SW,235,1.0,9.0,93,-99.99,,,-99.99,,2013-02-08 15:42:00,
2013-02-08 09:52:00,13.0,12.0,-100.00,SW,235,1.0,9.0,93,-99.99,,,-99.99,,2013-02-08 15:52:00,
2013-02-08 10:01:00,13.0,12.0,-100.00,SW,235,1.0,9.0,93,-99.99,,,-99.99,,2013-02-08 16:01:00,
2013-02-08 10:11:00,13.0,12.0,-100.00,SW,235,1.0,9.0,93,-99.99,,,-99.99,,2013-02-08 16:11:00,
2013-02-08 10:32:00,16.0,11.0,-100.00,NE,45,6.0,14.0,83,-99.99,,,-99.99,,2013-02-08 16:32:00,
2013-02-08 10:42:00,16.0,11.0,-100.00,NE,45,6.0,14.0,83,-99.99,,,-99.99,,2013-02-08 16:42:00,
2013-02-08 10:52:00,16.0,11.0,-100.00,NE,45,6.0,14.0,83,-99.99,,,-99.99,,2013-02-08 16:52:00,
2013-02-08 11:03:00,16.0,11.0,-100.00,NE,45,6.0,14.0,83,-99.99,,,-99.99,,2013-02-08 17:03:00,
2013-02-08 11:12:00,16.0,11.0,-100.00,NE,45,6.0,14.0,83,-99.99,,,-99.99,,2013-02-08 17:12:00,
2013-02-08 11:33:00,20.0,12.0,-100.00,ENE,65,2.0,9.0,72,-99.99,,,-99.99,,2013-02-08 17:33:00,
2013-02-08 11:42:00,20.0,12.0,-100.00,ENE,65,2.0,9.0,72,-99.99,,,-99.99,,2013-02-08 17:42:00,
2013-02-08 11:53:00,20.0,12.0,-100.00,ENE,65,2.0,9.0,72,-99.99,,,-99.99,,2013-02-08 17:53:00,
2013-02-08 12:02:00,20.0,12.0,-100.00,ENE,65,2.0,9.0,72,-99.99,,,-99.99,,2013-02-08 18:02:00,
2013-02-08 12:36:00,22.0,11.0,-100.00,NE,50,2.0,7.0,62,-99.99,,,-99.99,,2013-02-08 18:36:00,
2013-02-08 12:44:00,22.0,11.0,-100.00,NE,50,2.0,7.0,62,-99.99,,,-99.99,,2013-02-08 18:44:00,
2013-02-08 12:52:00,22.0,11.0,-100.00,NE,50,2.0,7.0,62,-99.99,,,-99.99,,2013-02-08 18:52:00,
2013-02-08 13:02:00,22.0,11.0,-100.00,NE,50,2.0,7.0,62,-99.99,,,-99.99,,2013-02-08 19:02:00,
2013-02-08 13:11:00,22.0,11.0,-100.00,NE,50,2.0,7.0,62,-99.99,,,-99.99,,2013-02-08 19:11:00,
2013-02-08 13:33:00,24.0,10.0,-100.00,NNE,15,2.0,8.0,57,-99.99,,,-99.99,,2013-02-08 19:33:00,
2013-02-08 13:42:00,24.0,10.0,-100.00,NNE,15,2.0,8.0,57,-99.99,,,-99.99,,2013-02-08 19:42:00,
2013-02-08 13:52:00,24.0,10.0,-100.00,NNE,15,2.0,8.0,57,-99.99,,,-99.99,,2013-02-08 19:52:00,
2013-02-08 14:02:00,24.0,10.0,-100.00,NNE,15,2.0,8.0,57,-99.99,,,-99.99,,2013-02-08 20:02:00,
2013-02-08 14:11:00,24.0,10.0,-100.00,NNE,15,2.0,8.0,57,-99.99,,,-99.99,,2013-02-08 20:11:00,
2013-02-08 14:32:00,26.0,8.0,-100.00,NE,40,5.0,7.0,48,-99.99,,,-99.99,,2013-02-08 20:32:00,
2013-02-08 14:42:00,26.0,8.0,-100.00,NE,40,5.0,7.0,48,-99.99,,,-99.99,,2013-02-08 20:42:00,
2013-02-08 14:52:00,26.0,8.0,-100.00,NE,40,5.0,7.0,48,-99.99,,,-99.99,,2013-02-08 20:52:00,
2013-02-08 15:02:00,26.0,8.0,-100.00,NE,40,5.0,7.0,48,-99.99,,,-99.99,,2013-02-08 21:02:00,
2013-02-08 15:11:00,26.0,8.0,-100.00,NE,40,5.0,7.0,48,-99.99,,,-99.99,,2013-02-08 21:11:00,
2013-02-08 15:33:00,26.0,8.0,-100.00,ENE,75,1.0,7.0,46,-99.99,,,-99.99,,2013-02-08 21:33:00,
2013-02-08 15:42:00,26.0,8.0,-100.00,ENE,75,1.0,7.0,46,-99.99,,,-99.99,,2013-02-08 21:42:00,
2013-02-08 15:52:00,26.0,8.0,-100.00,ENE,75,1.0,7.0,46,-99.99,,,-99.99,,2013-02-08 21:52:00,
2013-02-08 16:02:00,26.0,8.0,-100.00,ENE,75,1.0,7.0,46,-99.99,,,-99.99,,2013-02-08 22:02:00,
2013-02-08 16:32:00,23.0,6.0,-100.00,NNE,20,1.0,3.0,49,-99.99,,,-99.99,,2013-02-08 22:32:00,
2013-02-08 16:42:00,23.0,6.0,-100.00,NNE,20,1.0,3.0,49,-99.99,,,-99.99,,2013-02-08 22:42:00,
2013-02-08 16:52:00,23.0,6.0,-100.00,NNE,20,1.0,3.0,49,-99.99,,,-99.99,,2013-02-08 22:52:00,
2013-02-08 17:01:00,23.0,6.0,-100.00,NNE,20,1.0,3.0,49,-99.99,,,-99.99,,2013-02-08 23:01:00,
2013-02-08 17:11:00,23.0,6.0,-100.00,NNE,20,1.0,3.0,49,-99.99,,,-99.99,,2013-02-08 23:11:00,
2013-02-08 17:32:00,18.0,8.0,-100.00,SSE,165,0.0,0.0,64,-99.99,,,-99.99,,2013-02-08 23:32:00,
2013-02-08 17:42:00,18.0,8.0,-100.00,SSE,165,0.0,0.0,64,-99.99,,,-99.99,,2013-02-08 23:42:00,
2013-02-08 17:52:00,18.0,8.0,-100.00,SSE,165,0.0,0.0,64,-99.99,,,-99.99,,2013-02-08 23:52:00,
2013-02-08 18:02:00,18.0,8.0,-100.00,SSE,165,0.0,0.0,64,-99.99,,,-99.99,,2013-02-09 00:02:00,
2013-02-08 18:11:00,18.0,8.0,-100.00,SSE,165,0.0,0.0,64,-99.99,,,-99.99,,2013-02-09 00:11:00,
2013-02-08 18:32:00,12.0,6.0,-100.00,SSE,165,0.0,0.0,77,-99.99,,,-99.99,,2013-02-09 00:32:00,
2013-02-08 18:42:00,12.0,6.0,-100.00,SSE,165,0.0,0.0,77,-99.99,,,-99.99,,2013-02-09 00:42:00,
2013-02-08 18:52:00,12.0,6.0,-100.00,SSE,165,0.0,0.0,77,-99.99,,,-99.99,,2013-02-09 00:52:00,
2013-02-08 19:01:00,12.0,6.0,-100.00,SSE,165,0.0,0.0,77,-99.99,,,-99.99,,2013-02-09 01:01:00,
2013-02-08 19:11:00,12.0,6.0,-100.00,SSE,165,0.0,0.0,77,-99.99,,,-99.99,,2013-02-09 01:11:00,
2013-02-08 19:32:00,6.0,3.0,-100.00,SSE,165,0.0,0.0,85,-99.99,,,-99.99,,2013-02-09 01:32:00,
2013-02-08 19:42:00,6.0,3.0,-100.00,SSE,165,0.0,0.0,85,-99.99,,,-99.99,,2013-02-09 01:42:00,
2013-02-08 19:52:00,6.0,3.0,-100.00,SSE,165,0.0,0.0,85,-99.99,,,-99.99,,2013-02-09 01:52:00,
2013-02-08 20:01:00,6.0,3.0,-100.00,SSE,165,0.0,0.0,85,-99.99,,,-99.99,,2013-02-09 02:01:00,
2013-02-08 20:11:00,6.0,3.0,-100.00,SSE,165,0.0,0.0,85,-99.99,,,-99.99,,2013-02-09 02:11:00,
2013-02-08 20:32:00,4.0,1.0,-100.00,SSE,165,0.0,1.0,88,-99.99,,,-99.99,,2013-02-09 02:32:00,
2013-02-08 20:42:00,4.0,1.0,-100.00,SSE,165,0.0,1.0,88,-99.99,,,-99.99,,2013-02-09 02:42:00,
2013-02-08 20:53:00,4.0,1.0,-100.00,SSE,165,0.0,1.0,88,-99.99,,,-99.99,,2013-02-09 02:53:00,
2013-02-08 21:02:00,4.0,1.0,-100.00,SSE,165,0.0,1.0,88,-99.99,,,-99.99,,2013-02-09 03:02:00,
2013-02-08 21:11:00,4.0,1.0,-100.00,SSE,165,0.0,1.0,88,-99.99,,,-99.99,,2013-02-09 03:11:00,
2013-02-08 21:32:00,3.0,1.0,-100.00,SSE,165,0.0,0.0,89,-99.99,,,-99.99,,2013-02-09 03:32:00,
2013-02-08 21:42:00,3.0,1.0,-100.00,SSE,165,0.0,0.0,89,-99.99,,,-99.99,,2013-02-09 03:42:00,
2013-02-08 21:53:00,3.0,1.0,-100.00,SSE,165,0.0,0.0,89,-99.99,,,-99.99,,2013-02-09 03:53:00,
2013-02-08 22:02:00,3.0,1.0,-100.00,SSE,165,0.0,0.0,89,-99.99,,,-99.99,,2013-02-09 04:02:00,
2013-02-08 22:11:00,3.0,1.0,-100.00,SSE,165,0.0,0.0,89,-99.99,,,-99.99,,2013-02-09 04:11:00,
2013-02-08 22:32:00,4.0,2.0,-100.00,SSE,165,0.0,1.0,90,-99.99,,,-99.99,,2013-02-09 04:32:00,
2013-02-08 22:42:00,4.0,2.0,-100.00,SSE,165,0.0,1.0,90,-99.99,,,-99.99,,2013-02-09 04:42:00,
2013-02-08 22:52:00,4.0,2.0,-100.00,SSE,165,0.0,1.0,90,-99.99,,,-99.99,,2013-02-09 04:52:00,
2013-02-08 23:02:00,4.0,2.0,-100.00,SSE,165,0.0,1.0,90,-99.99,,,-99.99,,2013-02-09 05:02:00,
2013-02-08 23:32:00,3.0,1.0,-100.00,SSE,165,0.0,1.0,91,-99.99,,,-99.99,,2013-02-09 05:32:00,
2013-02-08 23:42:00,3.0,1.0,-100.00,SSE,165,0.0,1.0,91,-99.99,,,-99.99,,2013-02-09 05:42:00,
2013-02-08 23:52:00,3.0,1.0,-100.00,SSE,165,0.0,1.0,91,-99.99,,,-99.99,,2013-02-09 05:52:00,